EW5035 Weather Reports


Display with metric or nautical units.
time (UTC)temp
F
wind
direction
speed
MPH
gust
MPH
rain 1hr
in
rain 24hr
in
rain mn
in
humidity
%
barometer
mb
20260509211555 71 196 2.0 8.0 0.00 0.00 0.00 34 1019.7
20260509211035 71 196 3.0 8.0 0.00 0.00 0.00 33 1019.8
20260509210535 71 196 3.0 10.0 0.00 0.00 0.00 34 1019.9
20260509210054 71 196 4.0 10.0 0.00 0.00 0.00 34 1019.9
20260509205535 71 196 2.0 9.0 0.00 0.00 0.00 34 1020.1
20260509205035 71 196 3.0 6.0 0.00 0.00 0.00 34 1020.0
20260509204541 71 196 3.0 8.0 0.00 0.00 0.00 34 1020.1
20260509204038 71 196 4.0 8.0 0.00 0.00 0.00 35 1020.1
20260509203535 71 196 1.0 10.0 0.00 0.00 0.00 35 1020.1
20260509203052 70 196 3.0 10.0 0.00 0.00 0.00 36 1020.1
20260509202537 69 196 7.0 9.0 0.00 0.00 0.00 36 1020.1
20260509202035 70 211 3.0 14.0 0.00 0.00 0.00 35 1020.3
20260509201542 69 211 8.0 14.0 0.00 0.00 0.00 36 1020.3
20260509201034 70 211 1.0 6.0 0.00 0.00 0.00 36 1020.4
20260509200534 69 211 3.0 8.0 0.00 0.00 0.00 36 1020.4
20260509200054 69 211 2.0 8.0 0.00 0.00 0.00 37 1020.5
20260509195538 69 211 2.0 12.0 0.00 0.00 0.00 39 1020.6
20260509195034 67 211 7.0 13.0 0.00 0.00 0.00 38 1020.6
20260509194553 67 211 4.0 19.0 0.00 0.00 0.00 40 1020.6
20260509194037 68 211 6.0 19.0 0.00 0.00 0.00 40 1020.6
20260509193535 68 167 6.0 13.0 0.00 0.00 0.00 41 1020.6
20260509193054 67 168 4.0 15.0 0.00 0.00 0.00 41 1020.7
20260509192535 67 168 4.0 16.0 0.00 0.00 0.00 40 1020.9
20260509192035 68 168 10.0 16.0 0.00 0.00 0.00 40 1020.9
20260509191542 68 166 3.0 14.0 0.00 0.00 0.00 43 1021.0
20260509191037 67 0 4.0 20.0 0.00 0.00 0.00 43 1021.1
20260509190536 67 165 12.0 20.0 0.00 0.00 0.00 43 1021.1
20260509190054 67 162 6.0 15.0 0.00 0.00 0.00 45 1021.1
20260509185535 67 162 8.0 15.0 0.00 0.00 0.00 43 1021.1
20260509185035 67 162 6.0 15.0 0.00 0.00 0.00 43 1021.2
20260509184547 66 162 9.0 15.0 0.00 0.00 0.00 43 1021.4
20260509184034 66 162 6.0 13.0 0.00 0.00 0.00 44 1021.3
20260509183536 66 162 7.0 11.0 0.00 0.00 0.00 41 1021.5
20260509183048 66 162 7.0 14.0 0.00 0.00 0.00 43 1021.4
20260509182532 65 162 6.0 14.0 0.00 0.00 0.00 44 1021.5
20260509182034 66 162 10.0 14.0 0.00 0.00 0.00 44 1021.5
20260509181547 65 162 6.0 12.0 0.00 0.00 0.00 46 1021.4
20260509181036 65 162 8.0 15.0 0.00 0.00 0.00 44 1021.5
20260509180536 66 162 7.0 15.0 0.00 0.00 0.00 43 1021.5
20260509180046 65 162 9.0 15.0 0.00 0.00 0.00 47 1021.5
20260509175535 64 162 5.0 12.0 0.00 0.00 0.00 46 1021.5
20260509175036 65 162 8.0 12.0 0.00 0.00 0.00 46 1021.5
20260509174547 64 162 7.0 15.0 0.00 0.00 0.00 47 1021.3
20260509174035 64 162 5.0 15.0 0.00 0.00 0.00 47 1021.4
20260509173534 63 162 6.0 15.0 0.00 0.00 0.00 49 1021.6
20260509173116 63 162 10.0 15.0 0.00 0.00 0.00 50 1021.5
20260509172535 63 162 5.0 15.0 0.00 0.00 0.00 48 1021.5
20260509172036 63 162 8.0 15.0 0.00 0.00 0.00 50 1021.5
20260509171545 62 162 6.0 13.0 0.00 0.00 0.00 50 1021.5
20260509171035 62 162 7.0 16.0 0.00 0.00 0.00 49 1021.5
20260509170538 62 162 9.0 16.0 0.00 0.00 0.00 51 1021.6
20260509170059 61 162 3.0 14.0 0.00 0.00 0.00 52 1021.6
20260509165534 61 162 10.0 14.0 0.00 0.00 0.00 51 1021.6
20260509165035 61 162 7.0 15.0 0.00 0.00 0.00 54 1021.5
20260509164558 61 162 9.0 15.0 0.00 0.00 0.00 55 1021.5
20260509164033 61 162 9.0 15.0 0.00 0.00 0.00 56 1021.6
20260509163534 60 162 8.0 15.0 0.00 0.00 0.00 56 1021.6
20260509163051 60 162 9.0 14.0 0.00 0.00 0.00 56 1021.8
20260509162540 60 162 8.0 14.0 0.00 0.00 0.00 56 1021.9
20260509162034 60 162 5.0 12.0 0.00 0.00 0.00 59 1021.8
20260509161548 59 162 6.0 11.0 0.00 0.00 0.00 59 1021.7
20260509161034 59 162 6.0 15.0 0.00 0.00 0.00 60 1021.8
20260509160535 59 162 6.0 15.0 0.00 0.00 0.00 60 1021.8
20260509160049 59 162 10.0 15.0 0.00 0.00 0.00 60 1021.9
20260509155535 58 162 8.0 12.0 0.00 0.00 0.00 61 1021.8
20260509155035 58 162 6.0 13.0 0.00 0.00 0.00 62 1021.8
20260509154545 58 162 6.0 13.0 0.00 0.00 0.00 63 1021.8
20260509154035 57 162 6.0 12.0 0.00 0.00 0.00 64 1021.8
20260509153539 57 162 5.0 11.0 0.00 0.00 0.00 65 1021.7
20260509153046 57 162 6.0 11.0 0.00 0.00 0.00 64 1021.7
20260509152535 56 162 7.0 12.0 0.00 0.00 0.00 65 1021.8
20260509152035 56 162 6.0 12.0 0.00 0.00 0.00 67 1021.7
20260509151555 56 162 5.0 12.0 0.00 0.00 0.00 68 1021.6
20260509151037 55 162 5.0 13.0 0.00 0.00 0.00 69 1021.6
20260509150535 55 162 7.0 13.0 0.00 0.00 0.00 69 1021.7
20260509150052 54 162 8.0 13.0 0.00 0.00 0.00 69 1021.8
20260509145535 54 162 9.0 14.0 0.00 0.00 0.00 70 1021.6
20260509145034 54 162 9.0 14.0 0.00 0.00 0.00 70 1021.5
20260509144548 54 162 6.0 12.0 0.00 0.00 0.00 72 1021.6
20260509144034 53 162 7.0 14.0 0.00 0.00 0.00 72 1021.5
20260509143535 53 162 7.0 14.0 0.00 0.00 0.00 73 1021.4
20260509143054 52 162 10.0 14.0 0.00 0.00 0.00 73 1021.4
20260509142535 52 162 7.0 13.0 0.00 0.00 0.00 74 1021.3
20260509142038 52 162 7.0 13.0 0.00 0.00 0.00 74 1021.2
20260509141549 52 162 5.0 10.0 0.00 0.00 0.00 74 1021.2
20260509141036 51 162 3.0 10.0 0.00 0.00 0.00 76 1021.1
20260509140537 51 0 0.0 6.0 0.00 0.00 0.00 76 1021.3
20260509140049 50 162 2.0 5.0 0.00 0.00 0.00 77 1021.2
20260509135535 50 162 2.0 4.0 0.00 0.00 0.00 78 1021.1
20260509135035 50 162 0.0 7.0 0.00 0.00 0.00 79 1021.1
20260509134549 49 0 0.0 8.0 0.00 0.00 0.00 79 1021.0
20260509134038 49 162 5.0 8.0 0.00 0.00 0.00 79 1021.1
20260509133537 48 162 5.0 10.0 0.00 0.00 0.00 79 1021.0
20260509133049 48 162 5.0 10.0 0.00 0.00 0.00 79 1021.0
20260509132535 48 162 5.0 10.0 0.00 0.00 0.00 79 1021.0
20260509132034 48 162 1.0 7.0 0.00 0.00 0.00 78 1020.9
20260509131559 49 162 1.0 5.0 0.00 0.00 0.00 79 1021.0
20260509131034 48 162 0.0 10.0 0.00 0.00 0.00 78 1020.8
20260509130535 49 162 4.0 11.0 0.00 0.00 0.00 77 1020.8
20260509130119 49 162 7.0 11.0 0.00 0.00 0.00 78 1020.9
20260509125535 49 162 6.0 11.0 0.00 0.00 0.00 78 1020.7
20260509125034 49 162 8.0 11.0 0.00 0.00 0.00 78 1020.8
20260509124545 48 162 6.0 11.0 0.00 0.00 0.00 79 1020.7
20260509124035 48 162 8.0 11.0 0.00 0.00 0.00 80 1020.7
20260509123535 47 162 3.0 6.0 0.00 0.00 0.00 79 1020.7
20260509123114 47 162 0.0 8.0 0.00 0.00 0.00 78 1020.7
20260509122534 48 162 4.0 8.0 0.00 0.00 0.00 79 1020.9
20260509122035 48 162 5.0 10.0 0.00 0.00 0.00 78 1020.8
20260509121541 48 162 4.0 14.0 0.00 0.00 0.00 78 1020.8
20260509121037 48 0 2.0 16.0 0.00 0.00 0.00 77 1020.8
20260509120535 48 162 11.0 19.0 0.00 0.00 0.00 78 1020.7
20260509120050 48 162 15.0 19.0 0.00 0.00 0.00 78 1020.7
20260509115534 48 181 11.0 13.0 0.00 0.00 0.00 79 1020.6
20260509115034 47 188 8.0 12.0 0.00 0.00 0.00 79 1020.7
20260509114614 47 188 6.0 12.0 0.00 0.00 0.00 78 1020.7
20260509114034 47 188 9.0 12.0 0.00 0.00 0.00 78 1020.7
20260509113534 47 188 9.0 12.0 0.00 0.00 0.00 79 1020.7
20260509113051 46 188 3.0 6.0 0.00 0.00 0.00 79 1020.7
20260509112534 45 188 0.0 4.0 0.00 0.00 0.00 77 1020.5
20260509112035 45 0 0.0 7.0 0.00 0.00 0.00 76 1020.4
20260509111543 45 188 3.0 8.0 0.00 0.00 0.00 76 1020.4
20260509111035 46 188 5.0 8.0 0.00 0.00 0.00 76 1020.3
20260509110537 45 188 6.0 8.0 0.00 0.00 0.00 76 1020.4
20260509110053 46 188 1.0 7.0 0.00 0.00 0.00 75 1020.4
20260509105535 46 188 1.0 7.0 0.00 0.00 0.00 74 1020.3
20260509105035 46 188 0.0 2.0 0.00 0.00 0.00 74 1020.4
20260509104539 47 188 0.0 5.0 0.00 0.00 0.00 72 1020.4
20260509104034 48 0 0.0 11.0 0.00 0.00 0.00 71 1020.5
20260509103534 48 188 7.0 11.0 0.00 0.00 0.00 71 1020.3
20260509103049 47 188 9.0 11.0 0.00 0.00 0.00 76 1020.2
20260509102534 46 188 8.0 9.0 0.00 0.00 0.00 77 1020.0
20260509102034 46 188 6.0 8.0 0.00 0.00 0.00 76 1020.2
20260509101557 47 188 4.0 7.0 0.00 0.00 0.00 76 1020.2
20260509101035 48 188 1.0 8.0 0.00 0.00 0.00 74 1020.1
20260509100535 48 188 4.0 8.0 0.00 0.00 0.00 75 1020.2
20260509100044 48 188 6.0 11.0 0.00 0.00 0.00 74 1020.0
20260509095535 49 188 6.0 11.0 0.00 0.00 0.00 72 1020.0
20260509095036 48 188 6.0 9.0 0.00 0.00 0.00 74 1020.0
20260509094550 48 188 4.0 11.0 0.00 0.00 0.00 71 1020.1
20260509094035 49 188 4.0 12.0 0.00 0.00 0.00 70 1020.1
20260509093535 50 188 9.0 12.0 0.00 0.00 0.00 69 1019.9
20260509093047 49 188 8.0 13.0 0.00 0.00 0.00 71 1019.7
20260509092534 49 188 9.0 16.0 0.00 0.00 0.00 71 1019.8
20260509092034 49 188 11.0 16.0 0.00 0.00 0.00 71 1019.6
20260509091550 49 188 11.0 15.0 0.00 0.00 0.00 72 1019.7
20260509091035 49 188 11.0 15.0 0.00 0.00 0.00 71 1019.7
20260509090536 50 188 11.0 15.0 0.00 0.00 0.00 70 1019.9
20260509090046 50 190 10.0 13.0 0.00 0.00 0.00 69 1019.9
20260509085535 50 190 9.0 13.0 0.00 0.00 0.00 68 1019.9
20260509085035 51 190 9.0 12.0 0.00 0.00 0.00 66 1019.9
20260509084543 51 190 8.0 12.0 0.00 0.00 0.00 66 1020.0
20260509084035 51 190 9.0 13.0 0.00 0.00 0.00 64 1019.9
20260509083537 51 190 10.0 13.0 0.00 0.00 0.00 63 1019.9
20260509083045 51 190 9.0 12.0 0.00 0.00 0.00 62 1019.7
20260509082535 51 190 7.0 12.0 0.00 0.00 0.00 60 1019.6
20260509082035 52 190 8.0 12.0 0.00 0.00 0.00 56 1019.5
20260509081553 53 190 8.0 19.0 0.00 0.00 0.00 51 1019.5
20260509081038 54 190 10.0 19.0 0.00 0.00 0.00 47 1019.5
20260509080536 54 202 11.0 16.0 0.00 0.00 0.00 46 1019.4
20260509080054 54 211 11.0 16.0 0.00 0.00 0.00 45 1019.3
20260509075535 55 211 11.0 16.0 0.00 0.00 0.00 45 1019.3
20260509075035 54 211 9.0 14.0 0.00 0.00 0.00 45 1019.2
20260509074545 54 211 10.0 17.0 0.00 0.00 0.00 45 1019.2
20260509074038 55 211 12.0 17.0 0.00 0.00 0.00 44 1019.1
20260509073535 54 213 11.0 15.0 0.00 0.00 0.00 44 1019.0
20260509073047 54 215 10.0 16.0 0.00 0.00 0.00 44 1018.9
20260509072538 55 215 10.0 18.0 0.00 0.00 0.00 43 1018.9
20260509072036 56 215 12.0 18.0 0.00 0.00 0.00 41 1018.9
20260509071550 57 215 14.0 19.0 0.00 0.00 0.00 40 1018.9
20260509071035 57 215 15.0 19.0 0.00 0.00 0.00 40 1018.8
20260509070537 57 204 11.0 18.0 0.00 0.00 0.00 40 1018.4
20260509070051 56 177 12.0 17.0 0.00 0.00 0.00 41 1018.5
20260509065534 54 177 8.0 16.0 0.00 0.00 0.00 43 1018.5
20260509065034 55 177 9.0 16.0 0.00 0.00 0.00 41 1018.3
20260509064556 56 176 11.0 14.0 0.00 0.00 0.00 41 1018.4
20260509064032 55 201 10.0 13.0 0.00 0.00 0.00 42 1018.5
20260509063533 55 209 8.0 11.0 0.00 0.00 0.00 43 1018.5
20260509063038 56 210 6.0 9.0 0.00 0.00 0.00 41 1018.5
20260509062530 57 210 4.0 18.0 0.00 0.00 0.00 40 1018.3
20260509062034 57 210 6.0 18.0 0.00 0.00 0.00 40 1018.3
20260509061551 57 209 11.0 16.0 0.00 0.00 0.00 39 1018.2
20260509061035 57 209 11.0 16.0 0.00 0.00 0.00 38 1018.1
20260509060533 58 210 11.0 16.0 0.00 0.00 0.00 37 1018.0
20260509060042 59 234 4.0 14.0 0.00 0.00 0.00 37 1017.9
20260509055530 59 236 3.0 16.0 0.00 0.00 0.00 35 1017.7
20260509055032 59 228 9.0 16.0 0.00 0.00 0.00 35 1017.7
20260509054551 59 219 9.0 15.0 0.00 0.00 0.00 34 1017.8
20260509054032 60 218 8.0 15.0 0.00 0.00 0.00 33 1018.0
20260509053533 60 219 7.0 15.0 0.00 0.00 0.00 32 1017.8
20260509053052 61 219 8.0 16.0 0.00 0.00 0.00 31 1017.7
20260509052532 61 219 7.0 16.0 0.00 0.00 0.00 31 1017.6
20260509052033 61 215 5.0 16.0 0.00 0.00 0.00 31 1017.5
20260509051547 62 221 9.0 14.0 0.00 0.00 0.00 30 1017.5
20260509051033 62 226 6.0 14.0 0.00 0.00 0.00 30 1017.4
20260509050533 62 236 7.0 15.0 0.00 0.00 0.00 29 1017.5
20260509050059 62 242 5.0 15.0 0.00 0.00 0.00 29 1017.2
20260509045533 62 230 7.0 15.0 0.00 0.00 0.00 28 1017.1
20260509045033 63 211 8.0 16.0 0.00 0.00 0.00 28 1017.1
20260509044545 63 210 9.0 16.0 0.00 0.00 0.00 28 1017.1
20260509044033 63 212 8.0 19.0 0.00 0.00 0.00 28 1017.1
20260509043533 63 238 7.0 19.0 0.00 0.00 0.00 27 1017.1
20260509043054 64 249 10.0 20.0 0.00 0.00 0.00 27 1017.0
20260509042532 64 219 11.0 21.0 0.00 0.00 0.00 27 1016.9
20260509042032 64 242 12.0 21.0 0.00 0.00 0.00 27 1016.8
20260509041551 64 254 9.0 21.0 0.00 0.00 0.00 27 1016.7
20260509041034 64 249 11.0 21.0 0.00 0.00 0.00 27 1016.6
20260509040533 65 221 11.0 23.0 0.00 0.00 0.00 27 1016.5
20260509040045 65 242 11.0 23.0 0.00 0.00 0.00 27 1016.4
20260509035534 65 231 13.0 22.0 0.00 0.00 0.00 26 1016.3
20260509035032 66 224 13.0 22.0 0.00 0.00 0.00 26 1016.3
20260509034547 66 221 10.0 21.0 0.00 0.00 0.00 26 1016.2
20260509034032 66 217 9.0 21.0 0.00 0.00 0.00 25 1016.1
20260509033537 66 292 8.0 20.0 0.00 0.00 0.00 25 1016.1
20260509033049 67 303 8.0 16.0 0.00 0.00 0.00 25 1016.0
20260509032537 67 285 6.0 20.0 0.00 0.00 0.00 25 1015.9
20260509032034 67 286 6.0 20.0 0.00 0.00 0.00 25 1015.8
20260509031604 67 285 8.0 20.0 0.00 0.00 0.00 24 1015.8
20260509031035 67 240 4.0 15.0 0.00 0.00 0.00 23 1015.7
20260509030535 68 240 8.0 15.0 0.00 0.00 0.00 22 1015.7
20260509030050 68 240 6.0 21.0 0.00 0.00 0.00 21 1015.7
20260509025535 68 240 7.0 21.0 0.00 0.00 0.00 21 1015.6
20260509025039 69 241 9.0 21.0 0.00 0.00 0.00 20 1015.4
20260509024542 69 267 7.0 14.0 0.00 0.00 0.00 20 1015.3
20260509024036 69 272 6.0 16.0 0.00 0.00 0.00 20 1015.3
20260509023536 69 273 5.0 16.0 0.00 0.00 0.00 19 1015.2
20260509023050 70 277 6.0 18.0 0.00 0.00 0.00 19 1015.2
20260509022535 70 288 8.0 19.0 0.00 0.00 0.00 19 1015.1
20260509022035 71 284 10.0 19.0 0.00 0.00 0.00 19 1015.1
20260509021547 71 252 9.0 14.0 0.00 0.00 0.00 21 1015.1
20260509021037 72 233 4.0 13.0 0.00 0.00 0.00 21 1015.0
20260509020534 72 233 6.0 13.0 0.00 0.00 0.00 22 1014.9
20260509020049 73 222 4.0 18.0 0.00 0.00 0.00 23 1014.9
20260509015536 72 222 10.0 21.0 0.00 0.00 0.00 24 1014.8
20260509015037 72 218 9.0 22.0 0.00 0.00 0.00 27 1014.7
20260509014544 72 218 16.0 22.0 0.00 0.00 0.00 27 1014.8
20260509014038 72 213 14.0 19.0 0.00 0.00 0.00 27 1014.7
20260509013534 72 213 14.0 24.0 0.00 0.00 0.00 28 1014.6
20260509013048 72 200 13.0 28.0 0.00 0.00 0.00 27 1014.7
20260509012535 72 199 17.0 28.0 0.00 0.00 0.00 26 1014.7
20260509012035 73 196 16.0 28.0 0.00 0.00 0.00 26 1014.4
20260509011555 73 198 18.0 25.0 0.00 0.00 0.00 25 1014.4
20260509011035 73 201 14.0 24.0 0.00 0.00 0.00 25 1014.5
20260509010535 73 218 16.0 29.0 0.00 0.00 0.00 25 1014.4
20260509010047 73 219 16.0 29.0 0.00 0.00 0.00 25 1014.6
20260509005535 73 215 19.0 29.0 0.00 0.00 0.00 24 1014.6
20260509005035 74 218 17.0 27.0 0.00 0.00 0.00 25 1014.5
20260509004542 74 222 14.0 23.0 0.00 0.00 0.00 24 1014.5
20260509004035 74 205 12.0 22.0 0.00 0.00 0.00 25 1014.5
20260509003535 74 202 15.0 25.0 0.00 0.00 0.00 25 1014.5
20260509003050 74 198 13.0 25.0 0.00 0.00 0.00 25 1014.5
20260509002534 74 196 12.0 21.0 0.00 0.00 0.00 24 1014.5
20260509002034 74 209 13.0 21.0 0.00 0.00 0.00 26 1014.6
20260509001547 74 211 14.0 21.0 0.00 0.00 0.00 25 1014.7
20260509001036 74 207 12.0 24.0 0.00 0.00 0.00 25 1014.6
20260509000535 74 196 16.0 24.0 0.00 0.00 0.00 25 1014.5
20260509000047 74 192 15.0 24.0 0.00 0.00 0.00 25 1014.6
20260508235535 74 177 15.0 24.0 0.00 0.00 0.00 26 1014.5
20260508235036 74 209 12.0 28.0 0.00 0.00 0.00 26 1014.6
20260508234556 73 220 18.0 28.0 0.00 0.00 0.00 26 1014.6
20260508234036 74 195 14.0 28.0 0.00 0.00 0.00 27 1014.6
20260508233535 74 180 13.0 23.0 0.00 0.00 0.00 25 1014.6
20260508233043 74 216 14.0 25.0 0.00 0.00 0.00 26 1014.6
20260508232534 74 204 18.0 25.0 0.00 0.00 0.00 26 1014.7
20260508232035 74 190 13.0 19.0 0.00 0.00 0.00 26 1014.7
20260508231558 73 182 9.0 19.0 0.00 0.00 0.00 27 1014.8
20260508231036 73 182 14.0 26.0 0.00 0.00 0.00 27 1014.7
20260508230535 73 221 12.0 26.0 0.00 0.00 0.00 27 1014.8
20260508230048 73 221 19.0 26.0 0.00 0.00 0.00 27 1014.8
20260508225535 73 220 15.0 25.0 0.00 0.00 0.00 28 1014.8
20260508225036 73 198 11.0 22.0 0.00 0.00 0.00 27 1014.9
20260508224550 73 211 14.0 22.0 0.00 0.00 0.00 28 1015.0
20260508224040 73 186 16.0 22.0 0.00 0.00 0.00 27 1015.0
20260508223535 73 202 13.0 22.0 0.00 0.00 0.00 27 1014.9
20260508223045 72 200 13.0 22.0 0.00 0.00 0.00 27 1015.1
20260508222537 72 198 12.0 22.0 0.00 0.00 0.00 27 1015.1
20260508222035 72 198 14.0 22.0 0.00 0.00 0.00 27 1015.2
20260508221541 72 207 16.0 22.0 0.00 0.00 0.00 27 1015.2
20260508221035 72 196 13.0 21.0 0.00 0.00 0.00 28 1015.2
20260508220535 71 198 14.0 21.0 0.00 0.00 0.00 28 1015.2
20260508220114 70 181 14.0 21.0 0.00 0.00 0.00 29 1015.3
20260508215535 70 201 11.0 20.0 0.00 0.00 0.00 28 1015.4
20260508215036 70 207 14.0 22.0 0.00 0.00 0.00 28 1015.4
20260508214546 70 204 13.0 22.0 0.00 0.00 0.00 28 1015.4
20260508214037 70 200 17.0 27.0 0.00 0.00 0.00 27 1015.4
20260508213535 71 221 20.0 27.0 0.00 0.00 0.00 26 1015.4
20260508213051 71 202 13.0 19.0 0.00 0.00 0.00 28 1015.5
20260508212532 70 200 12.0 23.0 0.00 0.00 0.00 29 1015.4
20260508212034 70 218 15.0 23.0 0.00 0.00 0.00 29 1015.5